EW1836 Weather Reports


time (UTC)temp
F
wind
direction
speed
knots
gust
knots
rain 1hr
in
rain 24hr
in
rain mn
in
humidity
%
barometer
mb
20260504081528 41 48 0.0 0.0 0.00 0.00 0.00 88 1019.5
20260504050002 44 48 0.0 0.0 0.00 0.00 0.00 86 1020.4
20260504044600 45 48 0.0 0.0 0.00 0.00 0.00 85 1020.4
20260504043114 45 48 0.0 0.0 0.00 0.00 0.00 85 1020.6
20260504041554 45 48 0.0 0.0 0.00 0.00 0.00 85 1020.7
20260504040052 46 48 0.0 0.0 0.00 0.00 0.00 84 1020.8
20260504034554 47 48 0.0 0.0 0.00 0.00 0.00 84 1020.8
20260504033102 47 48 0.0 0.0 0.00 0.00 0.00 83 1020.7
20260504031556 48 48 0.0 0.0 0.00 0.00 0.00 82 1020.7
20260504024550 49 48 0.0 0.0 0.00 0.00 0.00 80 1020.7
20260504023049 50 48 0.0 0.0 0.00 0.00 0.00 79 1020.6
20260504021550 51 48 0.0 0.0 0.00 0.00 0.00 78 1020.2
20260504020053 51 48 0.0 0.0 0.00 0.00 0.00 77 1020.1
20260504014547 53 48 0.0 0.0 0.00 0.00 0.00 75 1019.9
20260504013052 54 48 0.0 0.0 0.00 0.00 0.00 72 1019.8
20260504011546 56 48 0.0 0.0 0.00 0.00 0.00 68 1019.6
20260504010055 57 48 0.0 0.0 0.00 0.00 0.00 65 1019.5
20260504004547 59 48 0.0 0.0 0.00 0.00 0.00 62 1019.3
20260504003045 60 48 0.0 0.0 0.00 0.00 0.00 60 1019.1
20260504001548 62 48 0.0 0.0 0.00 0.00 0.00 54 1019.1
20260504000042 65 48 0.0 0.0 0.00 0.00 0.00 51 1019.1
20260503234543 66 48 0.0 0.0 0.00 0.00 0.00 48 1019.1
20260503233042 68 48 0.0 0.9 0.00 0.00 0.00 42 1019.2
20260503231542 69 52 0.0 0.9 0.00 0.00 0.00 39 1019.2
20260503224540 69 306 0.0 7.0 0.00 0.00 0.00 40 1019.2
20260503223049 70 15 0.0 2.6 0.00 0.00 0.00 38 1019.2
20260503221547 70 350 0.0 2.6 0.00 0.00 0.00 34 1019.3
20260503220039 70 266 0.0 2.6 0.00 0.00 0.00 35 1019.3
20260503214551 70 47 0.9 3.5 0.00 0.00 0.00 36 1019.4
20260503213037 70 52 0.0 4.3 0.00 0.00 0.00 35 1019.4
20260503211538 71 171 0.9 2.6 0.00 0.00 0.00 38 1019.5
20260503210035 70 339 1.7 6.1 0.00 0.00 0.00 33 1019.7
20260503204539 70 198 0.9 3.5 0.00 0.00 0.00 35 1019.7
20260503203033 70 28 0.9 6.1 0.00 0.00 0.00 39 1019.9
20260503201534 70 5 0.9 4.3 0.00 0.00 0.00 38 1020.2
20260503200031 70 5 0.9 3.5 0.00 0.00 0.00 44 1020.4
20260503194527 69 9 0.0 5.2 0.00 0.00 0.00 44 1020.7
20260503193027 69 80 0.0 5.2 0.00 0.00 0.00 43 1020.8
20260503191526 69 28 0.0 2.6 0.00 0.00 0.00 40 1021.0
20260503190036 69 9 0.0 6.1 0.00 0.00 0.00 41 1021.3
20260503184524 68 83 0.0 2.6 0.00 0.00 0.00 39 1021.4
20260503183020 68 164 0.0 2.6 0.00 0.00 0.00 48 1021.6
20260503181534 67 277 0.0 6.1 0.00 0.00 0.00 46 1021.9
20260503180024 66 302 0.0 5.2 0.00 0.00 0.00 46 1022.0
20260503174512 66 98 0.0 2.6 0.00 0.00 0.00 52 1022.0
20260503173011 65 27 1.7 6.1 0.00 0.00 0.00 47 1022.2
20260503171520 64 317 0.0 4.3 0.00 0.00 0.00 49 1022.4